User: anonymous   Login
Location: ??
(34.9170°N, 135.5016°E)
Time: 12:35:11
(UTC+00:00)
Language:

Cosmos 2228 - Orbit

View from above orbital plane
View from above orbital plane
View from above satellite
View from above satellite

Ground track
Ground track

The orbit data is extracted from the following two-line orbital elements,

1 22286U 92094A   21138.01458917  .00000235  00000-0  22546-4 0  9997
2 22286  82.5186 104.1444 0022427  52.3978 307.9271 14.88273227535276
Epoch (UTC): 18 May 2021 00:21:00
Eccentricity: 0.0022427
inclination: 82.5186°
perigee height: 587 km
apogee height: 619 km
right ascension of ascending node: 104.1444°
argument of perigee: 52.3978°
revolutions per day: 14.88273227
mean anomaly at epoch: 307.9271°
orbit number at epoch: 53527

The dashed part of the orbit path shows where the satellite is in the earth's shadow,  

DLR